Content
SEND FEEDBACK

Daily
Averages
Monthly
Summary
French Polynesia

PAPEETE, FRENCH POLYNESIA


Home > Oceania > French Polynesia
Elevation: 2 meters     Latitude: 17 33S     Longitude: 149 36W

WEATHER
 
SELECT A DAY
Number of Records: 208,734;   Date Range: 6/30/96 - 8/31/14
 
SHARE

PRINT THIS DATA

[ ← Previous Day ]
WEATHER ALMANAC - 30 APRIL, 2013
[ Next Day → ]
[ °F ]   °C
Weather ElementAverageHighLow
Temperature27.1 °C31 °C (1:30 pm)23 °C (2:00 am)
Dewpoint21.9 °C23.3 °C (5:00 pm)20 °C (2:30 am)
Humidity73.2 %88 % (2:00 am)55 % (2:00 pm)
Barometer1010.5 hPa1012.5 hPa (8:00 am)1009.1 hPa (1:00 pm)
Wind Speed6.6 km/h14.8 km/h (6:00 pm)
Weather ElementAverage
Visibility12.2 km
Wind DirectionSE (134.3 °)

Weather ElementTotal
Precipitation---
Cooling Degree Days8.7 (Base 18.3)
Growing Degree Days17 (Base 10)
Averaged from 54 records on 30 April, 2013
WEATHER CONDITIONS BREAKOUT
WIND DIRECTION BREAKOUT
WEATHER BY HOUR - 30 APRIL, 2013
[ °F ]   °C
Local TimeTemperatureDewpointHumidityBarometerVisibilityWind DirectionWind SpeedGust SpeedPrecipitationEventsConditions
12:30 AM24 °C21 °C83 %1011.2 hPa10 kmSouth (190°)5.6 km/hMostly Cloudy
1:00 AM24 °C21 °C83 %1010.2 hPa10 kmSSE (160°)5.6 km/hMostly Cloudy
1:30 AM24 °C21 °C83 %1010.2 hPa10 kmVariable3.7 km/hMostly Cloudy
2:00 AM23.3 °C20.6 °C80 %1010.5 hPa9.7 kmSSE (160°)7.2 km/hScattered Clouds
2:00 AM23 °C21 °C88 %1010.2 hPa10 kmVariable3.7 km/hMostly Cloudy
2:30 AM24 °C20 °C78 %1010.2 hPa10 kmVariable3.7 km/hMostly Cloudy
3:00 AM23 °C21 °C88 %1010.2 hPa10 kmSouth (170°)9.3 km/hScattered Clouds
3:30 AM24 °C20 °C78 %1010.2 hPa10 kmSouth (170°)13 km/h
4:00 AM24 °C20 °C78 %1010.2 hPa10 kmSouth (180°)13 km/hMostly Cloudy
4:30 AM24 °C21 °C83 %1010.2 hPa10 kmSouth (180°)11.1 km/hOvercast
5:00 AM25 °C21.7 °C77 %1010.5 hPa59.5 kmSouth (170°)11.1 km/hClear
5:00 AM25 °C22 °C83 %1010.2 hPa10 kmSouth (170°)11.1 km/hOvercast
5:30 AM25 °C21 °C78 %1010.2 hPa10 kmSE (140°)5.6 km/h
6:00 AM25 °C21 °C78 %1010.2 hPa10 kmSouth (170°)11.1 km/hMostly Cloudy
6:30 AM25 °C21 °C78 %1011.2 hPa10 kmSouth (180°)9.3 km/hMostly Cloudy
7:00 AM25 °C21 °C78 %1011.2 hPa10 kmVariable3.7 km/hMostly Cloudy
7:30 AM26 °C22 °C78 %1012.2 hPa10 kmEast (90°)5.6 km/hMostly Cloudy
8:00 AM26.1 °C22.2 °C72 %1012.5 hPa25.7 kmENE (60°)7.2 km/hPartly Cloudy
8:00 AM26 °C22 °C78 %1012.2 hPa10 kmVariable3.7 km/hMostly Cloudy
8:30 AM27 °C21 °C70 %1012.2 hPa10 kmNorth (360°)3.7 km/hScattered Clouds
9:00 AM29 °C20 °C58 %1012.2 hPa10 kmNorth (10°)3.7 km/hScattered Clouds
9:30 AM29 °C21 °C62 %1012.2 hPa10 kmVariable1.9 km/hScattered Clouds
10:00 AM30 °C22 °C62 %1012.2 hPa10 kmNNW (340°)5.6 km/hScattered Clouds
10:37 AM30 °C22 °C62 %1011.2 hPa10 kmNNW (340°)5.6 km/hScattered Clouds
11:00 AM30 °C22.2 °C56 %1011.9 hPa30.6 kmNW (310°)7.4 km/hScattered Clouds
11:00 AM30 °C23 °C66 %1011.2 hPa10 kmNW (310°)7.4 km/hScattered Clouds
11:30 AM30 °C23 °C66 %1011.2 hPa10 kmSW (230°)5.6 km/hScattered Clouds
12:00 PM30 °C22 °C62 %1010.2 hPa10 kmWSW (250°)7.4 km/hScattered Clouds
12:30 PM30 °C22 °C62 %1010.2 hPa10 kmVariable3.7 km/hScattered Clouds
1:00 PM30 °C22 °C62 %1009.1 hPa10 kmVariable3.7 km/hScattered Clouds
1:30 PM31 °C22 °C58 %1009.1 hPa10 kmNorth (10°)5.6 km/hScattered Clouds
2:00 PM30.6 °C22.8 °C55 %1009.5 hPa30.6 kmNNW (340°)7.4 km/hScattered Clouds
2:00 PM31 °C23 °C62 %1009.1 hPa10 kmNNW (340°)7.4 km/hScattered Clouds
2:30 PM31 °C23 °C62 %1009.1 hPa10 kmVariable3.7 km/hScattered Clouds
3:00 PM31 °C23 °C62 %1009.1 hPa10 kmWSW (250°)5.6 km/hScattered Clouds
3:30 PM31 °C22 °C58 %1009.1 hPa10 kmWSW (250°)5.6 km/hScattered Clouds
4:00 PM30 °C22 °C62 %1009.1 hPa10 kmVariable1.9 km/hScattered Clouds
4:30 PM30 °C23 °C66 %1009.1 hPa10 kmNorth (350°)5.6 km/hScattered Clouds
5:00 PM28.3 °C23.3 °C67 %1010.2 hPa17.7 kmNE (50°)7.4 km/hPartly Cloudy
5:00 PM29 °C23 °C70 %1010.2 hPa10 kmNE (50°)7.4 km/hMostly Cloudy
5:30 PM28 °C23 °C74 %1010.2 hPa10 kmNNE (30°)7.4 km/hRainLight Rain Showers
6:00 PM27 °C23 °C79 %1010.2 hPa10 kmNorth (10°)14.8 km/hMostly Cloudy
6:30 PM26 °C23 °C83 %1010.2 hPa10 kmNorth (360°)13 km/hMostly Cloudy
7:00 PM26 °C22 °C78 %1010.2 hPa10 kmVariable3.7 km/hMostly Cloudy
7:30 PM26 °C22 °C78 %1011.2 hPa10 kmCalmMostly Cloudy
8:00 PM26.1 °C22.8 °C76 %1011.9 hPa19.3 kmSouth (170°)10.8 km/hPartly Cloudy
8:00 PM26 °C23 °C83 %1011.2 hPa10 kmSouth (170°)5.6 km/hMostly Cloudy
8:30 PM26 °C23 °C83 %1012.2 hPa10 kmSSW (200°)7.4 km/hMostly Cloudy
9:00 PM26 °C23 °C83 %1011.2 hPa10 kmVariable3.7 km/hMostly Cloudy
9:30 PM26 °C23 °C83 %1011.2 hPa10 kmENE (60°)3.7 km/hMostly Cloudy
10:00 PM26 °C23 °C83 %1011.2 hPa10 kmEast (90°)5.6 km/hMostly Cloudy
10:30 PM26 °C23 °C83 %1011.2 hPa10 kmNE (40°)3.7 km/hMostly Cloudy
11:00 PM26 °C22 °C78 %1011.2 hPa10 kmENE (70°)7.4 km/hMostly Cloudy
11:30 PM26 °C22 °C78 %1011.2 hPa10 kmENE (70°)7.4 km/hMostly Cloudy
Hourly data recorded from NTAA, located 0 kilometers away from Papeete, French Polynesia







STORIES FROM OUR PARTNERS